NOAA 16 DEB, 41071

Orbit data source: Space-Track

NOAA 16 DEB, 41071 is space debris in SSO originally from a launch on Thu, 21 Sep 2000 UTC launched from the Air Force Western Test Range (AFWTR). Debris objects in space refer to the collection of defunct objects orbiting the Earth. Examples of debris include non-operational satellites, rocket bodies, and fragments generated from explosions, collisions, or faulty payload assembly.

Loading next visibility...
NOAA 16 DEB details
Identifier
41071, 2000-055AE
Orbit
SSO
Last TLE update21 hours ago
Origin
Flag of USNOAA (US)
ManufacturerUnknown
MissionSpacecraft
Bus & MotorUnknown
MassUnknown
Launch date (UTC)
2000-09-21 (24 years ago)
Launch vehicleUnknown
Launch site
Air Force Western Test Range (AFWTR)
Object type
Payload
Rocket body
Debris
Shape & HBRUnknown
Radar Cross SectionSmall (<0.1 m²)

Expand to show TLE details & history

TLE from 21 hours ago
0 NOAA 16 DEB
1 41071U 00055AE  24360.55589437  .00009743  00000-0  42251-2 0  9993
2 41071  98.8152  93.3917 0011401 124.7147 235.5107 14.24368902469037
Epoch: 2024-12-25T13:20Z
Definitive object data (Epoch: 2024-12-25T13:20:29.273Z)
Latitude-0.00004°
Longitude158.72178°
Altitude818.181 km
Speed7.442 km/s
True Right ascension06h 13m 34s
True Declination0° 00' 00"
Sunlit
Object was in full shadow at TLE epoch
Visualization TLE readout
Latitude-80.27467°
Longitude-84.54806°
Altitude845.244 km
Speed7.426 km/s
Apparent Right ascension21h 15m 25s
Apparent Declination-68° 38' 47"
Sunlit
Object is in daylight
Visualization observer readout
Local Sidereal Time10:10:09
Azimuth169.976° S
Elevation-60.339°
Doppler factor1
Orbital elements
Apogee altitude815.966 km
Perigee altitude799.58 km
Semi-major axis7,185.91 km
Eccentricity0.0011401
Inclination98.8152°
RAAN93.3917°
Arg. of periapsis124.7147°
True anomaly235.4031°
Mean anomaly235.5107°
Eccentric anomaly235.45689°
Mean motion3.56304 °/min
BSTAR0.0042251
Orbital period101.04 mins
Loading maneuver chart data...
Loading historical data...
Loading historical data...
Loading historical data...
Loading historical data...
Loading historical data...
Loading historical data...
Loading historical data...

NOAA 16 DEB Visibility forecast

Observer location: undefined°, undefined

Span
Click to sort rows by Start time (UTC) header in descending order
Start Az.
Max El. time (UTC)
Max El. Az.
Max El.
End time (UTC)
End Az.
8 mins2024-12-26 18:35:55.111Z38.934° NE2024-12-26 18:39:55.111Z102.615° ESE28.755°2024-12-26 18:43:55.111Z158.619° S
6 mins2024-12-26 20:16:55.111Z336.033° NNW2024-12-26 20:19:55.111Z283.395° WNW25.798°2024-12-26 20:22:55.111Z241.338° WSW
9 mins2024-12-27 05:55:55.111Z142.354° SSE2024-12-27 05:59:55.111Z71.389° E38.192°2024-12-27 06:04:55.111Z356.867° N
5 mins2024-12-27 07:37:55.111Z237.868° WSW2024-12-27 07:39:55.111Z264.964° W17.804°2024-12-27 07:42:55.111Z303.97° NW
|